Weather History for Albuquerque, NM

Change the Weather History Date:

Tuesday, September 25, 2012

  Actual Average Record
Temperature  
Mean Temperature 66 °F 66 °F  
Max Temperature 78 °F 77 °F 90 °F (1998)
Min Temperature 53 °F 54 °F 36 °F (1916)
Degree Days  
Heating Degree Days 0 2  
Month to date heating degree days 8 14  
Since 1 July heating degree days 8 14  
Cooling Degree Days 1 3  
Month to date cooling degree days 183 147  
Year to date cooling degree days 1729 1304  
Growing Degree Days 16 (Base 50)    
Moisture  
Dew Point 43 °F    
Average Humidity 52    
Maximum Humidity 77    
Minimum Humidity 27    
Precipitation  
Precipitation T in 0.03 in 0.51 in (1948)
Month to date precipitation 0.44 0.89  
Year to date precipitation 5.23 7.17  
Snow  
Snow 0.00 in - - ()
Month to date snowfall 0.0  
Since 1 July snowfall 0.0  
Since 1 September snowfall 0.0  
Snow Depth 0.00 in    
Sea Level Pressure  
Sea Level Pressure 29.89 in    
Wind  
Wind Speed 6 mph (North)    
Max Wind Speed 25 mph    
Max Gust Speed 37 mph    
Visibility 10 miles    
Events Rain    
T = Trace of Precipitation, MM = Missing Value Source: NWS Daily Summary

Daily Weather History Graph

Daily Weather History Graph

Search for Another Location

Airport:

Trip Planner

Search our weather history database for the weather conditions in past years. The results will help you decide how hot, cold, wet, or windy it might be!

Date:

Astronomy

Sep. 25, 2012 Rise Set
Actual Time 6:57 AM MDT 6:58 PM MDT
Civil Twilight 6:31 AM MDT 7:23 PM MDT
Nautical Twilight 6:02 AM MDT 7:52 PM MDT
Astronomical Twilight 5:32 AM MDT 8:22 PM MDT
Moon 4:17 PM MDT 2:30 AM MDT
Length of Visible Light 12h 51m
Length of Day
12h 01m
Waxing Gibbous, 80% of the Moon is Illuminated
Sep 25
Waxing Gibbous
Sep 29
Full
Oct 8
Last Quarter
Oct 15
New
Oct 21
First Quarter

Hourly Weather History & Observations

Time (MDT) Temp. Dew Point Humidity Pressure Visibility Wind Dir Wind Speed Gust Speed Precip Events Conditions
12:52 AM 64.0 °F 45.0 °F 50% 29.95 in 10.0 mi NNE 9.2 mph - 0.00 in   Overcast
1:52 AM 60.1 °F 46.9 °F 62% 29.91 in 10.0 mi East 11.5 mph - 0.00 in   Mostly Cloudy
2:52 AM 62.1 °F 45.0 °F 53% 29.90 in 10.0 mi NNE 3.5 mph - N/A   Partly Cloudy
3:52 AM 60.1 °F 44.1 °F 55% 29.89 in 10.0 mi NNW 3.5 mph - N/A   Partly Cloudy
4:52 AM 57.9 °F 45.0 °F 62% 29.89 in 10.0 mi North 3.5 mph - N/A   Partly Cloudy
5:52 AM 54.0 °F 46.0 °F 75% 29.91 in 10.0 mi Calm Calm - N/A   Scattered Clouds
6:52 AM 57.0 °F 45.0 °F 64% 29.92 in 10.0 mi ENE 3.5 mph - N/A   Scattered Clouds
7:52 AM 54.0 °F 45.0 °F 72% 29.94 in 10.0 mi SSE 5.8 mph - N/A   Partly Cloudy
8:52 AM 59.0 °F 46.0 °F 62% 29.95 in 10.0 mi WNW 3.5 mph - N/A   Clear
9:52 AM 61.0 °F 46.9 °F 60% 29.95 in 10.0 mi Calm Calm - N/A   Partly Cloudy
10:52 AM 66.0 °F 46.9 °F 50% 29.93 in 10.0 mi Variable 3.5 mph - N/A   Partly Cloudy
11:52 AM 70.0 °F 42.1 °F 36% 29.92 in 10.0 mi SSW 9.2 mph - N/A   Partly Cloudy
12:52 PM 73.4 °F 37.4 °F 27% 30.08 in 10.0 mi Variable 3.5 mph - N/A   Scattered Clouds
1:52 PM 75.9 °F 39.0 °F 26% 29.84 in 10.0 mi Calm Calm - N/A   Scattered Clouds
2:28 PM 75.2 °F 37.4 °F 25% 30.05 in 10.0 mi NW 21.9 mph 36.8 mph 0.00 in Rain Light Rain
2:52 PM 75.9 °F 39.0 °F 26% 29.84 in 10.0 mi WNW 12.7 mph - 0.00 in   Scattered Clouds
3:52 PM 75.9 °F 41.0 °F 29% 29.81 in 10.0 mi NE 9.2 mph - N/A   Scattered Clouds
4:52 PM 75.0 °F 39.9 °F 28% 29.81 in 10.0 mi NNE 5.8 mph - N/A   Mostly Cloudy
5:52 PM 72.0 °F 43.0 °F 35% 29.84 in 10.0 mi North 13.8 mph - 0.00 in Rain Light Rain
6:52 PM 70.0 °F 43.0 °F 38% 29.83 in 10.0 mi NNE 8.1 mph - 0.00 in   Scattered Clouds
7:52 PM 69.1 °F 42.1 °F 38% 29.85 in 10.0 mi NNE 10.4 mph - N/A   Scattered Clouds
8:52 PM 68.0 °F 41.0 °F 37% 29.85 in 10.0 mi ENE 4.6 mph - N/A   Scattered Clouds
9:52 PM 66.0 °F 43.0 °F 43% 29.87 in 10.0 mi Calm Calm - N/A   Scattered Clouds
10:52 PM 64.9 °F 44.1 °F 47% 29.86 in 10.0 mi NW 5.8 mph - N/A   Mostly Cloudy
11:52 PM 63.0 °F 43.0 °F 48% 29.86 in 10.0 mi North 5.8 mph - 0.00 in   Mostly Cloudy